TNS 0-2 (42914 NORAD) Tracking and Keplerian Element Data

This shows tracking and keplerian element data for the satellite.

Feedback or suggestion? Click here.




ElementValue
Catalog42914
NameTNS 0-2
Epoch Orbit7595
Epoch Day350.49226855
Epoch Year2018
RAAN159.7151
Inclination51.6328
Eccentricity0.0004969
Argument of Perigee180.3984
Mean Anonmoly179.701
Mean Motion15.70879877
Decay Rate0.00019497
L11 42914U 98067ND 18350.49226855 .00019497 00000-0 15731-3 0 9998
L22 42914 51.6328 159.7151 0004969 180.3984 179.7010 15.70879877 75957

Live tracking and technical data element details for TNS 0-2 (NORAD 42914). TNS 0-2 can be tracked NOW for your location showing map with azimuth and elevation plus other details from your city location.

Track the satellite on the map from your city or location and see movement details for azimuth, elevation, latitude, longitude, range, height, and movement on the map or in text.







IsCatalogInMostPopularTable: catalog: 42914, numindb: 153
Update: records affected: 1



GetName: 42914 TNS 0-2

Hit Count: updated at: Wed, 19 Dec 2018 15:53:03 GMT